Tracking 20628 objects as of 7-Apr-2020
HD Live streaming from Space Station
objects crossing your sky now

CZ-3B DEB

Track CZ-3B DEB now!


NORAD ID: 40165
Int'l Code: 2010-042S
Perigee: 795.3 km
Apogee: 40,995.8 km
Inclination: 28.7 °
Period: 746.8 minutes
Semi major axis: 27266 km
RCS: Unknown
Launch date: September 4, 2010
Source: People's Republic of China (PRC)
Launch site: Xichang Space Center, China (XSC)

Note: This is SATELLITE DEBRIS
aabbcc
Your satellite tracking list
Your tracking list is empty




NASA's NSSDC Master Catalog

Two Line Element Set (TLE):
1 40165U 10042S   20095.25554447 +.00000044 +00000-0 +96849-2 0  9991
2 40165 028.6723 000.9819 7371773 275.0887 233.6120 01.92822674060155
Source of the keplerian elements: AFSPC